This is the latest recevied weather packets stored in our database for station/object N7WGJ. If no packets are shown the sender has not sent any weather packets the latest 10 day(s).
| Time | Temp. | Humidity | Pressure | Rain* | Wind** | Luminosity | Snow |
|---|---|---|---|---|---|---|---|
| 1777477888 | 11.11° C | 82% | 1026.1 hPa | 0 mm | - | - | - |
| 1777477290 | 10.56° C | 84% | 1026.2 hPa | 0 mm | - | - | - |
| 1777476686 | 10.56° C | 85% | 1026.2 hPa | 0 mm | - | - | - |
| 1777476085 | 10.56° C | 86% | 1026.2 hPa | 0 mm | - | - | - |
| 1777475489 | 10.56° C | 86% | 1026.2 hPa | 0 mm | - | - | - |
| 1777474907 | 10.56° C | 88% | 1026.3 hPa | 0 mm | - | - | - |
| 1777474295 | 9.44° C | 91% | 1026.2 hPa | 0 mm | - | - | - |
| 1777473696 | 9.44° C | 92% | 1026.2 hPa | 0 mm | - | - | - |
| 1777473094 | 8.89° C | 93% | 1026.1 hPa | 0 mm | - | - | - |
| 1777472495 | 8.89° C | 94% | 1026 hPa | 0 mm | - | - | - |
| 1777471892 | 8.33° C | 95% | 1025.9 hPa | 0 mm | - | - | - |
| 1777471315 | 7.78° C | 94% | 1025.9 hPa | 0 mm | - | - | - |
| 1777470687 | 7.22° C | 93% | 1025.8 hPa | 0 mm | - | - | - |
| 1777470086 | 7.22° C | 93% | 1025.8 hPa | 0 mm | - | - | - |
| 1777469485 | 7.78° C | 93% | 1025.9 hPa | 0 mm | - | - | - |
| 1777468885 | 7.78° C | 93% | 1025.8 hPa | 0 mm | - | - | - |
| 1777468285 | 7.78° C | 93% | 1025.7 hPa | 0 mm | - | - | - |
| 1777467707 | 8.33° C | 92% | 1025.7 hPa | 0 mm | - | - | - |
| 1777467102 | 8.33° C | 92% | 1025.5 hPa | 0 mm | - | - | - |
| 1777466500 | 8.33° C | 92% | 1025.5 hPa | 0 mm | - | - | - |
| 1777465901 | 8.33° C | 92% | 1025.4 hPa | 0 mm | - | - | - |
| 1777465303 | 8.33° C | 92% | 1025.3 hPa | 0 mm | - | - | - |
| 1777464684 | 8.33° C | 92% | 1025.3 hPa | 0 mm | - | - | - |
| 1777464099 | 8.33° C | 91% | 1025.3 hPa | 0 mm | - | - | - |
| 1777463494 | 8.33° C | 91% | 1025.4 hPa | 0 mm | - | - | - |
* Rain latest hour (hover to see other rain measurements)
** Current wind speed in m/s (hover to see current wind gust speed)